Location: B�di�
(14.6834°N, 3.1047°W)
Time: 18:01:29
(UTC+00:00)

Cosmos 1892 - Pass Details

Date: 24 January 2020
Orbit: 503 x 526 km, 82.5° (Epoch: 23 February)

Event Time Altitude Azimuth Distance (km) Brightness Sun altitude
Rises 19:46:42 0° 184° (S) 2,643 6.5 -23.8°
Reaches altitude 10° 19:48:50 10° 184° (S) 1,757 5.6 -24.3°
Enters shadow 19:50:58 32° 184° (S) 916 4.0 -24.8°
